Preview of NWS' New Version of Forecast
This preview is not operational and should not be used for support decisions.

Regional Weather Roundup (RWR)

Issued by National Weather Service (NWS)

                            
000
ASUS45 KCYS 230010
RWRWY 

WYOMING REGIONAL WEATHER ROUNDUP
NATIONAL WEATHER SERVICE CHEYENNE WY
500 PM MST FRI FEB 22 2019

NOTE:  "FAIR" INDICATES FEW OR NO CLOUDS BELOW 12,000 FEET
WITH NO SIGNIFICANT WEATHER AND/OR OBSTRUCTIONS TO VISIBILITY.

WYZ001-230100-
...YELLOWSTONE NATIONAL PARK...
  
CITY           SKY/WX    TMP DP  RH WIND       PRES   REMARKS
LK YELLOWSTONE   N/A     13   0  56 VRB5      29.75R WCI   5          
6HR MIN TEMP: -12; 6HR MAX TEMP:  19;                                

W YELLOWSTONE  NOT AVBL                                               

$$
WYZ002>013-054>058-071-098>099-230100-
...NORTHERN WYOMING...
  
CITY           SKY/WX    TMP DP  RH WIND       PRES   REMARKS
JACKSON        CLEAR     12  -2  53 SE3       29.83S                  
CODY           CLEAR     26  12  55 SE10      29.76R WCI  16          
GREYBULL       CLEAR     24  12  60 SE10      29.83F WCI  14          
6HR MIN TEMP:  13; 6HR MAX TEMP:  25;                                

WORLAND        CLEAR     23  12  62 S6        29.83S WCI  16          
6HR MIN TEMP:  16; 6HR MAX TEMP:  24;                                

SHERIDAN       CLEAR     24  14  65 CALM      29.81S                  
6HR MIN TEMP:  15; 6HR MAX TEMP:  29;                                

BUFFALO        CLEAR     24  12  60 CALM      29.77F                  
6HR MIN TEMP:  17; 6HR MAX TEMP:  25;                                

GILLETTE       CLEAR     16   9  74 S8        29.81S WCI   5          
6HR MIN TEMP:  15; 6HR MAX TEMP:  19; 6HR PCP: TRACE;                

HULETT         LGT SNOW  19  14  79 MISG      29.84S                  
NEWCASTLE      FLURRIES  18  12  79 SE5       29.87S WCI  11          

$$
WYZ014>020-022>026-101>103-230100-
...CENTRAL WYOMING...
  
CITY           SKY/WX    TMP DP  RH WIND       PRES   REMARKS
BIG PINEY      CLEAR     11   4  73 SE6       29.80R WCI   1          
6HR MIN TEMP:  10; 6HR MAX TEMP:  18;                                

PINEDALE       CLEAR     10   3  72 SE7       29.81R WCI   0          
DUBOIS         FAIR      21  -6  30 NW10      29.72R WCI  10          
LANDER         CLEAR     20   9  62 CALM      29.78R                  
6HR MIN TEMP:  15; 6HR MAX TEMP:  21;                                

RIVERTON       CLEAR     19   8  62 CALM      29.80S                  
6HR MIN TEMP:  15; 6HR MAX TEMP:  20;                                

CASPER         PTCLDY    18  11  74 SW14      29.78F WCI   4          
6HR MIN TEMP:  14; 6HR MAX TEMP:  19;                                

DOUGLAS        CLOUDY    21  13  71 W6        29.81S WCI  13          
6HR MIN TEMP:  17; 6HR MAX TEMP:  23;                                


$$
WYZ021-027>030-104>119-230100-
...SOUTHERN WYOMING...
  
CITY           SKY/WX    TMP DP  RH WIND       PRES   REMARKS
EVANSTON       SUNNY     14   5  67 S5        29.84R WCI   6          
6HR MIN TEMP:   8; 6HR MAX TEMP:  15;                                

KEMMERER       SUNNY     12   5  73 W18       29.80S WCI  -5          
FORT BRIDGER   FAIR      16   6  66 W16       29.86R WCI   0          
ROCK SPRINGS   CLEAR     14   5  67 SW20      29.80F WCI  -3          
6HR MIN TEMP:   9; 6HR MAX TEMP:  14;                                

DIXON          CLOUDY    17   8  69 N6        29.84S WCI   8          
RAWLINS        CLOUDY    15   7  70 VRB6      29.78S WCI   6          
6HR MIN TEMP:  15; 6HR MAX TEMP:  19;                                

SARATOGA       MOCLDY    19  10  68 NW7       29.78R WCI  10          
LARAMIE        LGT SNOW  20  16  84 N13       29.70R FOG     WCI   7  
6HR MIN TEMP:  20; 6HR MAX TEMP:  33; 6HR PCP: TRACE;                

CHEYENNE       CLOUDY    21  18  88 CALM      29.74R                  
6HR MIN TEMP:  19; 6HR MAX TEMP:  21;                                

TORRINGTON     CLOUDY    23  20  88 E7        29.83F WCI  15          
6HR MIN TEMP:  19; 6HR MAX TEMP:  24;                                

PINE BLUFFS    CLOUDY    25  23  93 NW6       29.79F WCI  18          

$$